When you browse on this site, cookies collect data to enhance your experience and personalize the content and advertising you see.
Visit our Privacy Policy to learn more. By continuing to use the site, you agree to this use of cookies and data.
  • In Deutschland
  • Länderverzeichnis
  • Für 7 Tage
  • Wassertemperatur
  • Wetterkarte
  • Widgets
  • user-avatar
    Anmelden

    Stündliche Wetter Dubasova

    Heute, 19 Oktober, Samstag

    Zeit Temperatur Niederschläge Wind Luftdruck Luftfeuchtigkeit
    00:00 -7°C° 0 mm 3 m/S 749 mmHg 83%
    01:00 -7°C° 0 mm 2 m/S 749 mmHg 83%
    02:00 -7°C° 0 mm 2 m/S 749 mmHg 83%
    03:00 -7°C° 0 mm 2 m/S 750 mmHg 84%
    04:00 -7°C° 0 mm 1 m/S 750 mmHg 89%
    05:00 -8°C° 0 mm 2 m/S 751 mmHg 89%
    06:00 -8°C° 0 mm 2 m/S 751 mmHg 89%
    07:00 -8°C° 0 mm 2 m/S 751 mmHg 89%
    08:00 -7°C° 0 mm 2 m/S 752 mmHg 80%
    09:00 -5°C° 0 mm 2 m/S 752 mmHg 72%
    10:00 -5°C° 0 mm 3 m/S 753 mmHg 64%
    11:00 -4°C° 0 mm 2 m/S 753 mmHg 62%
    12:00 -3°C° 0 mm 2 m/S 753 mmHg 60%
    13:00 -2°C° 0 mm 2 m/S 753 mmHg 58%
    14:00 -3°C° 0 mm 2 m/S 753 mmHg 61%
    15:00 -1°C° 0 mm 1 m/S 753 mmHg 65%
    16:00 -2°C° 0 mm 1 m/S 754 mmHg 68%
    17:00 -3°C° 0 mm 1 m/S 754 mmHg 72%
    18:00 -4°C° 0 mm 1 m/S 754 mmHg 75%
    19:00 -6°C° 0 mm 1 m/S 754 mmHg 79%
    20:00 -6°C° 0 mm 1 m/S 755 mmHg 80%
    21:00 -6°C° 0 mm 1 m/S 755 mmHg 81%
    22:00 -7°C° 0 mm 1 m/S 756 mmHg 82%
    23:00 -7°C° 0 mm 1 m/S 755 mmHg 84%

    Morgen, 20 Oktober, Sonntag

    Zeit Temperatur Niederschläge Wind Luftdruck Luftfeuchtigkeit
    00:00 -7°C° 0 mm 1 m/S 755 mmHg 85%
    01:00 -7°C° 0 mm 1 m/S 755 mmHg 87%
    02:00 -7°C° 0 mm 1 m/S 755 mmHg 88%
    03:00 -8°C° 0 mm 1 m/S 755 mmHg 89%
    04:00 -9°C° 0 mm 2 m/S 755 mmHg 90%
    05:00 -9°C° 0 mm 2 m/S 755 mmHg 90%
    06:00 -9°C° 0 mm 2 m/S 755 mmHg 90%
    07:00 -9°C° 0 mm 2 m/S 755 mmHg 90%
    08:00 -8°C° 0 mm 3 m/S 755 mmHg 82%
    09:00 -7°C° 0 mm 3 m/S 755 mmHg 74%
    10:00 -5°C° 0 mm 3 m/S 755 mmHg 66%
    11:00 -4°C° 0 mm 4 m/S 754 mmHg 64%
    12:00 -3°C° 0 mm 4 m/S 754 mmHg 62%
    13:00 -2°C° 0 mm 4 m/S 754 mmHg 59%
    14:00 -2°C° 0 mm 4 m/S 753 mmHg 63%
    15:00 -1°C° 0 mm 3 m/S 753 mmHg 66%
    16:00 -2°C° 0 mm 3 m/S 753 mmHg 70%
    17:00 -2°C° 0 mm 3 m/S 752 mmHg 72%
    18:00 -2°C° 0 mm 3 m/S 752 mmHg 74%
    19:00 -4°C° 0 mm 4 m/S 752 mmHg 76%
    20:00 -4°C° 0 mm 4 m/S 751 mmHg 77%
    21:00 -3°C° 0 mm 4 m/S 751 mmHg 78%
    22:00 -3°C° 0 mm 4 m/S 750 mmHg 78%
    23:00 -3°C° 0.1 mm 4 m/S 750 mmHg 81%

    übermorgen, 21 Oktober, Montag

    Zeit Temperatur Niederschläge Wind Luftdruck Luftfeuchtigkeit
    00:00 -3°C° 0.1 mm 4 m/S 750 mmHg 84%
    01:00 -2°C° 0.1 mm 4 m/S 749 mmHg 87%
    02:00 -2°C° 0.4 mm 4 m/S 749 mmHg 87%
    03:00 -1°C° 0.4 mm 4 m/S 749 mmHg 87%
    04:00 -1°C° 0.4 mm 4 m/S 749 mmHg 86%
    05:00 0°C° 0.1 mm 4 m/S 749 mmHg 88%
    06:00 0°C° 0.1 mm 4 m/S 748 mmHg 89%
    07:00 0°C° 0.1 mm 4 m/S 748 mmHg 90%
    08:00 +1°C° 0 mm 4 m/S 748 mmHg 89%
    09:00 +1°C° 0 mm 4 m/S 748 mmHg 88%
    10:00 +3°C° 0 mm 4 m/S 748 mmHg 87%
    11:00 +3°C° 0 mm 4 m/S 748 mmHg 87%
    12:00 +3°C° 0 mm 4 m/S 748 mmHg 87%
    13:00 +3°C° 0 mm 4 m/S 748 mmHg 87%
    14:00 +3°C° 0 mm 3 m/S 748 mmHg 89%
    15:00 +3°C° 0 mm 3 m/S 748 mmHg 90%
    16:00 +2°C° 0 mm 3 m/S 748 mmHg 92%
    17:00 +2°C° 0 mm 3 m/S 748 mmHg 93%
    18:00 +1°C° 0 mm 3 m/S 747 mmHg 94%
    19:00 +1°C° 0 mm 3 m/S 747 mmHg 94%
    20:00 +1°C° 0 mm 3 m/S 746 mmHg 95%
    21:00 +2°C° 0 mm 3 m/S 746 mmHg 95%
    22:00 +2°C° 0 mm 3 m/S 745 mmHg 95%
    23:00 +1°C° 0.3 mm 4 m/S 744 mmHg 94%

    22 Oktober, Dienstag

    Zeit Temperatur Niederschläge Wind Luftdruck Luftfeuchtigkeit
    00:00 +3°C° 0.3 mm 4 m/S 743 mmHg 93%
    01:00 +2°C° 0.3 mm 5 m/S 742 mmHg 92%
    02:00 +3°C° 0.1 mm 5 m/S 741 mmHg 90%
    03:00 +3°C° 0.1 mm 6 m/S 741 mmHg 89%
    04:00 +4°C° 0.1 mm 6 m/S 740 mmHg 87%
    05:00 +4°C° 0 mm 7 m/S 739 mmHg 86%
    06:00 +4°C° 0 mm 7 m/S 738 mmHg 85%
    07:00 +4°C° 0 mm 7 m/S 737 mmHg 84%
    08:00 +4°C° 0.1 mm 7 m/S 736 mmHg 83%
    09:00 +5°C° 0.1 mm 7 m/S 736 mmHg 82%
    10:00 +5°C° 0.1 mm 7 m/S 735 mmHg 81%
    11:00 +5°C° 0.1 mm 7 m/S 735 mmHg 82%
    12:00 +6°C° 0.1 mm 7 m/S 734 mmHg 82%
    13:00 +6°C° 0.1 mm 7 m/S 734 mmHg 82%
    14:00 +7°C° 0.1 mm 6 m/S 734 mmHg 83%
    15:00 +7°C° 0.1 mm 6 m/S 734 mmHg 84%
    16:00 +7°C° 0.1 mm 5 m/S 735 mmHg 85%
    17:00 +7°C° 0 mm 5 m/S 735 mmHg 84%
    18:00 +6°C° 0 mm 5 m/S 736 mmHg 83%
    19:00 +5°C° 0 mm 5 m/S 737 mmHg 82%
    20:00 +5°C° 0 mm 4 m/S 737 mmHg 85%
    21:00 +4°C° 0 mm 4 m/S 737 mmHg 87%
    22:00 +3°C° 0 mm 4 m/S 738 mmHg 89%
    23:00 +3°C° 0 mm 4 m/S 738 mmHg 88%

    23 Oktober, Mittwoch

    Zeit Temperatur Niederschläge Wind Luftdruck Luftfeuchtigkeit
    00:00 +1°C° 0 mm 4 m/S 738 mmHg 86%
    01:00 +1°C° 0 mm 4 m/S 739 mmHg 85%
    02:00 0°C° 0 mm 4 m/S 739 mmHg 85%
    03:00 -1°C° 0 mm 4 m/S 739 mmHg 85%
    04:00 -2°C° 0 mm 4 m/S 740 mmHg 85%
    05:00 -2°C° 0 mm 4 m/S 740 mmHg 85%
    06:00 -1°C° 0 mm 3 m/S 741 mmHg 86%
    07:00 -1°C° 0 mm 3 m/S 741 mmHg 87%
    08:00 -1°C° 0 mm 3 m/S 742 mmHg 83%
    09:00 0°C° 0 mm 3 m/S 742 mmHg 79%
    10:00 0°C° 0 mm 3 m/S 742 mmHg 76%
    11:00 +1°C° 0 mm 3 m/S 743 mmHg 74%
    12:00 +1°C° 0 mm 3 m/S 743 mmHg 72%
    13:00 +3°C° 0 mm 2 m/S 743 mmHg 70%
    14:00 +2°C° 0 mm 2 m/S 743 mmHg 74%
    15:00 +1°C° 0 mm 2 m/S 743 mmHg 78%
    16:00 +1°C° 0 mm 2 m/S 743 mmHg 83%
    17:00 -1°C° 0 mm 2 m/S 743 mmHg 85%
    18:00 -2°C° 0 mm 2 m/S 743 mmHg 88%
    19:00 -2°C° 0 mm 2 m/S 743 mmHg 91%
    20:00 -2°C° 0 mm 2 m/S 743 mmHg 90%
    21:00 -2°C° 0 mm 2 m/S 743 mmHg 89%
    22:00 -2°C° 0 mm 3 m/S 743 mmHg 88%
    23:00 -2°C° 0 mm 3 m/S 742 mmHg 88%

    24 Oktober, Donnerstag

    Zeit Temperatur Niederschläge Wind Luftdruck Luftfeuchtigkeit
    00:00 -1°C° 0 mm 3 m/S 742 mmHg 87%
    01:00 -1°C° 0 mm 3 m/S 741 mmHg 87%
    02:00 0°C° 0 mm 3 m/S 741 mmHg 87%
    03:00 -1°C° 0 mm 4 m/S 740 mmHg 87%
    04:00 -1°C° 0 mm 4 m/S 740 mmHg 87%
    05:00 0°C° 0 mm 4 m/S 740 mmHg 86%
    06:00 0°C° 0 mm 4 m/S 739 mmHg 86%
    07:00 +1°C° 0 mm 5 m/S 739 mmHg 85%
    08:00 +1°C° 0 mm 5 m/S 738 mmHg 85%
    09:00 +2°C° 0 mm 5 m/S 738 mmHg 85%
    10:00 +3°C° 0 mm 5 m/S 738 mmHg 85%
    11:00 +3°C° 0 mm 5 m/S 738 mmHg 85%
    12:00 +5°C° 0 mm 5 m/S 738 mmHg 86%
    13:00 +5°C° 0 mm 5 m/S 738 mmHg 86%
    14:00 +5°C° 0 mm 5 m/S 738 mmHg 87%
    15:00 +5°C° 0 mm 5 m/S 738 mmHg 88%
    16:00 +5°C° 0 mm 5 m/S 738 mmHg 89%
    17:00 +5°C° 0 mm 5 m/S 738 mmHg 89%
    18:00 +5°C° 0 mm 5 m/S 739 mmHg 90%
    19:00 +5°C° 0 mm 4 m/S 739 mmHg 90%
    20:00 +5°C° 0 mm 4 m/S 739 mmHg 90%
    21:00 +5°C° 0 mm 4 m/S 739 mmHg 89%
    22:00 +5°C° 0 mm 4 m/S 740 mmHg 89%
    23:00 +5°C° 0 mm 4 m/S 740 mmHg 90%
    Mehr zeigen